Location: Oregon Star Party
(44.2935°N, 120.1332°W)
Time: 18:35:31
(UTC-07:00)

Amateur Radio Satellites - All Passes

Search period start: 24 April 2015 18:05
Search period end: 25 April 2015 18:05
Location: Oregon Star Party, 44.2935°N, 120.1332°W

Satellite Date Start Highest point End Downlink Frequencies (MHz)
Time Altitude Azimuth
JAS-2 24 Apr 18:13:52 18:18:38 16° 277° (W) 18:22:53 435.910
CUSAT 1 24 Apr 18:16:00 18:19:33 57° 285° (WNW) 18:24:18 437.405
CUTE-I 24 Apr 18:20:54 18:26:13 80° 75° (ENE) 18:31:34 437.470
GONETS M04 24 Apr 18:27:47 18:36:01 42° 290° (WNW) 18:44:14
Cubesat XI-IV 24 Apr 18:30:10 18:35:31 85° 254° (WSW) 18:40:53 437.490
M-CUBED/EXP-1 PRIME 24 Apr 18:33:45 18:36:29 17° 94° (E) 18:39:12 437.505
CUBESAT XI-V 24 Apr 18:33:50 18:37:14 21° 91° (E) 18:40:44 437.345
MOZHAYETS 4 24 Apr 18:37:18 18:41:27 33° 291° (WNW) 18:45:31
RS-15 24 Apr 18:43:31 18:52:48 29° 344° (NNW) 19:02:16 29.354- 29.394
VERMONT LUNAR 24 Apr 18:48:08 18:51:18 36° 170° (S) 18:54:28 437.305
DANDE 24 Apr 18:48:46 18:51:54 33° 291° (WNW) 18:55:55 436.750
PHONESAT 2.4 24 Apr 19:05:28 19:08:35 28° 162° (SSE) 19:11:44 2401.200-2431.200
ISS 24 Apr 19:15:17 19:18:26 46° 217° (SW) 19:21:34 145.825
SO-50 24 Apr 19:15:33 19:19:00 19° 34° (NE) 19:22:33 436.795
AUBIESAT-1 24 Apr 19:16:18 19:20:21 43° 103° (ESE) 19:24:04 437.475
PCSat 24 Apr 19:26:21 19:30:20 20° 253° (WSW) 19:34:09 145.827
PRISM 24 Apr 19:34:16 19:38:15 49° 99° (E) 19:42:14 437.425
COMPASS 1 24 Apr 19:47:56 19:49:29 12° 62° (ENE) 19:51:13 437.405
STRAND 1 24 Apr 19:50:46 19:55:46 55° 100° (E) 20:00:47 437.568
HO-68 24 Apr 19:54:14 20:00:49 42° 64° (ENE) 20:07:31 435.675
Cosmos 2499 24 Apr 19:57:02 20:05:48 58° 285° (WNW) 20:14:16 435.465 / 435.565
CUTE-I 24 Apr 20:04:13 20:07:03 14° 273° (W) 20:09:36 437.470
M-CUBED/EXP-1 PRIME 24 Apr 20:07:34 20:11:43 45° 295° (WNW) 20:15:31 437.505
SEEDS 24 Apr 20:09:41 20:13:06 24° 67° (ENE) 20:16:35 437.485
CUBESAT XI-V 24 Apr 20:10:32 20:14:55 43° 289° (WNW) 20:19:16 437.345
Cubesat XI-IV 24 Apr 20:14:54 20:16:33 11° 275° (W) 20:17:51 437.490
CANX-2 24 Apr 20:15:46 20:19:41 35° 70° (ENE) 20:23:39 2200.000
CINEMA 3 24 Apr 20:16:33 20:19:17 17° 63° (ENE) 20:22:14 145.822/145.860
GOMX 1 24 Apr 20:19:07 20:23:07 46° 72° (ENE) 20:27:21 467.674
YUBILEINY 24 Apr 20:21:26 20:26:02 16° 53° (NE) 20:31:05 435.215
CUBEBUG 2 24 Apr 20:24:25 20:25:37 11° 60° (ENE) 20:27:04 437.445
CUTE 1.7 + AOD 2 24 Apr 20:24:56 20:28:58 40° 71° (ENE) 20:33:02 437.475
VERMONT LUNAR 24 Apr 20:25:17 20:28:30 41° 186° (S) 20:31:42 437.305
BRITE-PL 24 Apr 20:26:17 20:30:26 87° 77° (ENE) 20:34:45 437.365/2234.400
AAUSAT CUBESAT 2 24 Apr 20:29:11 20:32:42 27° 68° (ENE) 20:36:19 437.432
PHONESAT 2.4 24 Apr 20:43:01 20:46:29 45° 179° (S) 20:49:56 2401.200-2431.200
UWE-3 24 Apr 20:50:59 20:53:45 17° 63° (ENE) 20:56:42 435.000/436.395/437.385
AUBIESAT-1 24 Apr 20:51:43 20:54:49 20° 302° (WNW) 20:57:41 437.475
SO-50 24 Apr 20:55:18 21:00:17 88° 48° (NE) 21:05:14 436.795
RS-15 24 Apr 21:00:14 21:09:44 30° 19° (NNE) 21:19:44 29.354- 29.394
DOVE 4 24 Apr 21:00:14 21:04:29 85° 76° (ENE) 21:08:58 437.250
FUNcube-1 24 Apr 21:03:09 21:06:00 18° 64° (ENE) 21:09:03 145.935
PRISM 24 Apr 21:10:48 21:13:24 16° 296° (WNW) 21:15:51 437.425
UKube-1 24 Apr 21:11:08 21:13:16 14° 62° (ENE) 21:15:33 .
COMPASS 1 24 Apr 21:20:24 21:24:38 75° 258° (WSW) 21:28:55 437.405
ZACube-1 24 Apr 21:27:02 21:30:49 30° 68° (ENE) 21:34:45 437.345
Oscar 11 24 Apr 21:28:17 21:32:32 55° 73° (ENE) 21:36:50 145.826/435.025
STRAND 1 24 Apr 21:30:49 21:34:38 21° 297° (WNW) 21:38:19 437.568
VELOX 1 24 Apr 21:30:54 21:32:05 11° 60° (ENE) 21:33:28 145.980
HUMSAT D 24 Apr 21:31:22 21:34:05 17° 64° (ENE) 21:36:56 437.325/437.525
HO-68 24 Apr 21:41:48 21:48:34 42° 263° (W) 21:55:20 435.675
SEEDS 24 Apr 21:44:52 21:48:46 33° 264° (W) 21:52:40 437.485
DELFI C3 24 Apr 21:45:39 21:49:42 64° 75° (ENE) 21:53:45 145.870
AISAT 24 Apr 21:46:42 21:49:24 17° 63° (ENE) 21:52:15 437.250
CINEMA 3 24 Apr 21:51:50 21:56:04 54° 261° (W) 22:00:32 145.822/145.860
CANX-2 24 Apr 21:52:18 21:55:44 22° 268° (W) 21:59:06 2200.000
Cosmos 2499 24 Apr 21:57:16 22:01:15 13° 309° (NW) 22:04:38 435.465 / 435.565
CUBEBUG 2 24 Apr 21:57:17 22:01:38 88° 257° (WSW) 22:06:11 437.445
GOMX 1 24 Apr 21:58:55 22:01:40 16° 271° (W) 22:04:20 467.674
DX 1 24 Apr 22:00:23 22:04:29 44° 71° (ENE) 22:08:38 434.975-435.025
CUTE 1.7 + AOD 2 24 Apr 22:01:53 22:05:05 20° 269° (W) 22:08:12 437.475
VERMONT LUNAR 24 Apr 22:03:00 22:05:34 20° 202° (SSW) 22:08:05 437.305
AAUSAT CUBESAT 2 24 Apr 22:04:34 22:08:16 29° 265° (W) 22:11:58 437.432
Cosmos 2491 24 Apr 22:08:30 22:15:34 30° 83° (E) 22:22:54 435.465 / 435.565
YUBILEINY 24 Apr 22:16:14 22:24:59 69° 78° (ENE) 22:33:40 435.215
PHONESAT 2.4 24 Apr 22:21:11 22:24:24 31° 196° (SSW) 22:27:37 2401.200-2431.200
ESTCUBE 1 24 Apr 22:21:38 22:24:55 21° 65° (ENE) 22:28:18 437.505/2401.250
UWE-3 24 Apr 22:25:36 22:29:52 54° 261° (W) 22:34:18 435.000/436.395/437.385
O/OREOS (USA 219) 24 Apr 22:30:59 22:35:14 39° 107° (ESE) 22:39:31 437.305
50 SAT 24 Apr 22:36:17 22:40:08 49° 73° (ENE) 22:44:04 437.505
FUNcube-1 24 Apr 22:37:45 22:41:58 50° 261° (W) 22:46:20 145.935
SO-50 24 Apr 22:37:53 22:40:14 13° 251° (WSW) 22:42:20 436.795
UKube-1 24 Apr 22:44:38 22:48:56 66° 258° (WSW) 22:53:15 .
TIGRISAT 24 Apr 22:44:39 22:48:06 20° 91° (E) 22:51:39 435.000
UNISAT 6 24 Apr 22:48:22 22:52:03 23° 92° (E) 22:55:48 437.425
NANOSAT C BR1 24 Apr 22:58:30 23:00:17 13° 88° (E) 23:02:17 145.865
POPSAT HIP 1 24 Apr 23:01:00 23:03:06 14° 89° (E) 23:05:23 437.405
SPROUT 24 Apr 23:02:31 23:04:24 13° 62° (ENE) 23:06:28 437.525
ZACube-1 24 Apr 23:03:26 23:07:11 27° 266° (W) 23:10:59 437.345
VELOX 1 24 Apr 23:03:38 23:08:02 87° 254° (WSW) 23:12:28 145.980
HUMSAT D 24 Apr 23:05:23 23:09:29 49° 261° (W) 23:13:40 437.325/437.525
Oscar 11 24 Apr 23:06:33 23:09:08 15° 271° (W) 23:11:31 145.826/435.025
CUBEBUG 1 24 Apr 23:11:50 23:16:03 55° 73° (ENE) 23:20:18 437.445
RS-15 24 Apr 23:13:27 23:24:52 67° 48° (NE) 23:36:50 29.354- 29.394
AISAT 24 Apr 23:21:18 23:25:37 55° 260° (W) 23:29:58 437.250
DELFI C3 24 Apr 23:23:51 23:25:20 11° 272° (W) 23:26:36 145.870
POLYITAN 1 24 Apr 23:29:06 23:32:48 28° 95° (E) 23:36:33 437.675
ANTELSAT 24 Apr 23:29:44 23:34:25 58° 100° (E) 23:39:02 437.575/2403.000
BUGSAT 1 24 Apr 23:29:51 23:32:46 19° 92° (E) 23:35:49 437.445
DUCHIFAT 1 24 Apr 23:31:16 23:34:56 28° 95° (E) 23:38:39 145.980
Cosmos 2504 24 Apr 23:31:42 23:37:34 22° 59° (ENE) 23:43:25 435.465 / 435.565
DX 1 24 Apr 23:37:57 23:41:01 18° 269° (W) 23:43:58 434.975-435.025
QB50P1 24 Apr 23:47:53 23:51:59 43° 98° (E) 23:56:05 145.935-145.965
ESTCUBE 1 24 Apr 23:57:12 00:01:32 44° 262° (W) 00:05:51 437.505/2401.250
AIST 1 24 Apr 23:58:11 23:59:40 12° 85° (E) 00:01:23
PHONESAT 2.4 25 Apr 00:01:05 00:02:01 11° 211° (SSW) 00:02:52 2401.200-2431.200
Cosmos 2491 25 Apr 00:03:15 00:11:54 64° 284° (WNW) 00:20:37 435.465 / 435.565
TISAT 1 25 Apr 00:08:39 00:12:40 48° 72° (ENE) 00:16:44 437.305
O/OREOS (USA 219) 25 Apr 00:11:00 00:14:49 25° 306° (NW) 00:18:34 437.305
50 SAT 25 Apr 00:13:01 00:15:18 14° 271° (W) 00:17:27 437.505
QB50P2 25 Apr 00:13:31 00:17:51 84° 102° (ESE) 00:22:10 145.880/145.840
YUBILEINY 25 Apr 00:14:06 00:21:09 27° 278° (W) 00:27:54 435.215
TIGRISAT 25 Apr 00:20:35 00:25:07 46° 289° (WNW) 00:29:34 435.000
BEESAT 25 Apr 00:22:25 00:24:53 15° 61° (ENE) 00:27:32 436.000
SWISSCUBE 25 Apr 00:24:22 00:27:12 16° 62° (ENE) 00:30:13 437.505
UNISAT 6 25 Apr 00:24:34 00:29:01 41° 290° (WNW) 00:33:23 437.425
NANOSAT C BR1 25 Apr 00:32:22 00:36:37 63° 286° (WNW) 00:40:51 145.865
POPSAT HIP 1 25 Apr 00:35:10 00:39:25 59° 287° (WNW) 00:43:38 437.405
SPROUT 25 Apr 00:35:44 00:39:59 69° 258° (WSW) 00:44:17 437.525
CUBEBUG 1 25 Apr 00:50:18 00:52:50 15° 271° (W) 00:55:10 437.445
BUGSAT 1 25 Apr 01:04:34 01:08:26 39° 289° (WNW) 01:12:20 437.445
POLYITAN 1 25 Apr 01:04:56 01:08:42 29° 292° (WNW) 01:12:25 437.675
DUCHIFAT 1 25 Apr 01:07:02 01:10:44 28° 292° (WNW) 01:14:23 145.980
ANTELSAT 25 Apr 01:07:35 01:10:47 18° 297° (WNW) 01:13:49 437.575/2403.000
Cosmos 2504 25 Apr 01:24:05 01:32:17 82° 264° (W) 01:39:49 435.465 / 435.565
QB50P1 25 Apr 01:24:27 01:27:36 20° 295° (WNW) 01:30:37 145.935-145.965
ITUPSAT 1 25 Apr 01:26:11 01:30:51 53° 71° (ENE) 01:35:32 437.325
RS-15 25 Apr 01:26:22 01:36:56 42° 250° (WSW) 01:47:41 29.354- 29.394
AIST 1 25 Apr 01:32:34 01:36:51 62° 281° (W) 01:41:06
Oscar 19 25 Apr 01:39:36 01:43:42 24° 92° (E) 01:47:55 437.125/150
TISAT 1 25 Apr 01:46:09 01:48:47 16° 270° (W) 01:51:16 437.305
QB50P2 25 Apr 01:51:50 01:53:11 11° 299° (WNW) 01:54:18 145.880/145.840
BEESAT 25 Apr 01:57:24 02:02:11 76° 257° (WSW) 02:07:01 436.000
SWISSCUBE 25 Apr 01:59:50 02:04:36 66° 258° (WSW) 02:09:23 437.505
KKS-1 25 Apr 02:05:49 02:09:28 26° 67° (ENE) 02:13:12 437.445
Cosmos 2491 25 Apr 02:06:36 02:11:06 14° 309° (NW) 02:15:05 435.465 / 435.565
ITAMSAT 1 25 Apr 02:13:29 02:16:16 15° 88° (E) 02:19:18 435.822/435.867
Gurwin Techsat 1B 25 Apr 02:37:56 02:42:01 23° 91° (E) 02:46:14 435.225
GONETS M04 25 Apr 02:39:06 02:46:04 26° 62° (ENE) 02:53:17
STARS 25 Apr 03:01:24 03:05:43 61° 73° (ENE) 03:10:06 437.465
ITUPSAT 1 25 Apr 03:05:47 03:09:07 18° 270° (W) 03:12:19 437.325
CUSAT 1 25 Apr 03:07:01 03:12:49 25° 64° (ENE) 03:19:24 437.405
Oscar 19 25 Apr 03:18:20 03:23:19 46° 290° (WNW) 03:28:16 437.125/150
Cosmos 2504 25 Apr 03:19:55 03:24:24 15° 284° (WNW) 03:28:16 435.465 / 435.565
BEESAT 3 25 Apr 03:26:58 03:31:02 72° 123° (ESE) 03:35:10 437.485
BEESAT 2 25 Apr 03:27:28 03:31:31 61° 121° (ESE) 03:35:38 435.950
JAS-2 25 Apr 03:36:21 03:38:59 13° 81° (E) 03:41:52 435.910
DANDE 25 Apr 03:41:15 03:47:37 33° 69° (ENE) 03:55:04 436.750
KKS-1 25 Apr 03:42:00 03:46:01 32° 264° (W) 03:50:01 437.445
ITAMSAT 1 25 Apr 03:51:15 03:56:26 73° 286° (WNW) 04:01:35 435.822/435.867
Cosmos 2499 25 Apr 03:57:04 03:59:27 12° 50° (NE) 04:02:17 435.465 / 435.565
MOZHAYETS 4 25 Apr 04:03:44 04:07:47 31° 68° (ENE) 04:11:53
HORYU 2 25 Apr 04:15:49 04:20:01 38° 97° (E) 04:24:12 437.375
Gurwin Techsat 1B 25 Apr 04:17:11 04:22:19 50° 290° (WNW) 04:27:25 435.225
AIST 2 25 Apr 04:23:38 04:27:53 75° 123° (ESE) 04:32:12 435.215
AUBIESAT-1 25 Apr 04:33:25 04:35:11 12° 54° (NE) 04:37:09 437.475
GONETS M04 25 Apr 04:35:09 04:44:01 77° 265° (W) 04:52:49
STARS 25 Apr 04:40:23 04:42:41 14° 272° (W) 04:44:47 437.465
CUSAT 1 25 Apr 04:48:47 04:56:15 81° 261° (W) 05:04:37 437.405
AO-7 25 Apr 04:59:44 05:07:56 59° 102° (ESE) 05:16:09 29.400- 29.500
BEESAT 3 25 Apr 05:06:44 05:09:33 17° 322° (NW) 05:12:18 437.485
BEESAT 2 25 Apr 05:06:58 05:10:02 19° 321° (NW) 05:13:03 435.950
JAS-2 25 Apr 05:18:53 05:25:27 88° 103° (ESE) 05:31:11 435.910
M-CUBED/EXP-1 PRIME 25 Apr 05:22:03 05:26:24 35° 63° (ENE) 05:30:47 437.505
DANDE 25 Apr 05:24:02 05:31:12 60° 264° (W) 05:39:29 436.750
STRAND 1 25 Apr 05:32:20 05:34:45 14° 59° (ENE) 05:37:22 437.568
ITAMSAT 1 25 Apr 05:33:35 05:35:07 11° 304° (NW) 05:36:24 435.822/435.867
CUBESAT XI-V 25 Apr 05:38:52 05:42:35 25° 67° (ENE) 05:46:22 437.345
MOZHAYETS 4 25 Apr 05:40:54 05:44:59 30° 265° (W) 05:49:03
Cosmos 2499 25 Apr 05:47:08 05:54:56 60° 76° (ENE) 06:02:10 435.465 / 435.565
HORYU 2 25 Apr 05:52:51 05:56:29 24° 294° (WNW) 06:00:00 437.375
AIST 2 25 Apr 06:04:01 06:07:00 18° 323° (NW) 06:09:55 435.215
AUBIESAT-1 25 Apr 06:04:29 06:09:16 77° 69° (ENE) 06:14:04 437.475
PRISM 25 Apr 06:25:50 06:29:49 45° 72° (ENE) 06:33:49 437.425
CUSAT 1 25 Apr 06:33:22 06:38:21 18° 276° (W) 06:43:11 437.405
GONETS M04 25 Apr 06:34:33 06:39:32 16° 284° (WNW) 06:43:57
CUTE-I 25 Apr 06:36:51 06:41:20 28° 94° (E) 06:45:54 437.470
Cubesat XI-IV 25 Apr 06:46:07 06:50:54 34° 96° (E) 06:55:44 437.490
AO-7 25 Apr 06:53:02 07:00:26 36° 302° (WNW) 07:07:43 29.400- 29.500
M-CUBED/EXP-1 PRIME 25 Apr 06:56:56 07:01:14 31° 260° (W) 07:05:30 437.505
O/OREOS (USA 219) 25 Apr 07:01:20 07:03:33 14° 47° (NE) 07:05:55 437.305
JAS-2 25 Apr 07:05:25 07:09:35 18° 305° (NW) 07:13:16 435.910
STRAND 1 25 Apr 07:08:11 07:13:19 88° 255° (WSW) 07:18:27 437.568
DANDE 25 Apr 07:10:49 07:13:40 12° 278° (W) 07:16:01 436.750
CUBESAT XI-V 25 Apr 07:15:34 07:19:53 37° 263° (W) 07:24:10 437.345
Cosmos 2499 25 Apr 07:41:09 07:47:32 27° 277° (W) 07:53:22 435.465 / 435.565
AUBIESAT-1 25 Apr 07:42:05 07:44:36 14° 268° (W) 07:46:53 437.475
PRISM 25 Apr 08:02:48 08:05:34 17° 269° (W) 08:08:11 437.425
Cosmos 2491 25 Apr 08:16:24 08:21:23 17° 54° (NE) 08:26:50 435.465 / 435.565
CUTE-I 25 Apr 08:16:36 08:21:35 41° 292° (WNW) 08:26:31 437.470
GOMX 1 25 Apr 08:19:36 08:22:29 15° 88° (E) 08:25:39 467.674
PCSat 25 Apr 08:25:19 08:30:19 41° 113° (ESE) 08:35:25 145.827
Cubesat XI-IV 25 Apr 08:26:14 08:31:01 34° 293° (WNW) 08:35:45 437.490
BRITE-PL 25 Apr 08:28:35 08:32:52 27° 94° (E) 08:37:28 437.365/2234.400
O/OREOS (USA 219) 25 Apr 08:39:09 08:43:41 83° 245° (WSW) 08:48:08 437.305
STRAND 1 25 Apr 08:51:50 08:53:23 11° 275° (W) 08:54:34 437.568
DOVE 4 25 Apr 08:57:33 09:01:35 24° 92° (E) 09:05:50 437.250
COMPASS 1 25 Apr 09:03:38 09:06:11 16° 90° (E) 09:08:51 437.405
HO-68 25 Apr 09:07:22 09:13:50 36° 95° (E) 09:20:22 435.675
SEEDS 25 Apr 09:27:28 09:31:22 35° 96° (E) 09:35:16 437.485
YUBILEINY 25 Apr 09:27:32 09:31:46 15° 76° (ENE) 09:36:33 435.215
CANX-2 25 Apr 09:34:59 09:39:13 57° 100° (E) 09:43:24 2200.000
CUTE 1.7 + AOD 2 25 Apr 09:44:09 09:48:26 65° 100° (E) 09:52:40 437.475
CINEMA 3 25 Apr 09:44:47 09:49:18 34° 95° (E) 09:53:53 145.822/145.860
TIGRISAT 25 Apr 09:45:08 09:48:35 22° 65° (ENE) 09:52:11 435.000
AAUSAT CUBESAT 2 25 Apr 09:45:34 09:49:31 38° 97° (E) 09:53:26 437.432
CUBEBUG 2 25 Apr 09:47:34 09:50:56 19° 90° (E) 09:54:27 437.445
UNISAT 6 25 Apr 09:49:01 09:52:40 25° 66° (ENE) 09:56:28 437.425
NANOSAT C BR1 25 Apr 09:53:20 09:55:07 13° 62° (ENE) 09:57:04 145.865
GOMX 1 25 Apr 09:56:02 10:01:07 74° 286° (WNW) 10:06:29 467.674
POPSAT HIP 1 25 Apr 09:56:02 09:58:05 14° 63° (ENE) 10:00:19 437.405
BRITE-PL 25 Apr 10:06:46 10:11:29 41° 289° (WNW) 10:16:29 437.365/2234.400
BEESAT 3 25 Apr 10:07:54 10:09:44 13° 33° (NNE) 10:11:41 437.485
PCSat 25 Apr 10:08:54 10:13:51 34° 312° (NW) 10:18:47 145.827
BEESAT 2 25 Apr 10:09:02 10:10:30 12° 31° (NNE) 10:12:05 435.950
Cosmos 2491 25 Apr 10:11:25 10:20:16 72° 79° (ENE) 10:29:07 435.465 / 435.565
UWE-3 25 Apr 10:14:06 10:18:09 29° 94° (E) 10:22:14 435.000/436.395/437.385
BUGSAT 1 25 Apr 10:22:13 10:24:46 17° 65° (ENE) 10:27:26 437.445
POLYITAN 1 25 Apr 10:23:57 10:27:27 26° 67° (ENE) 10:31:03 437.675
FUNcube-1 25 Apr 10:24:45 10:28:43 28° 94° (E) 10:32:43 145.935
DUCHIFAT 1 25 Apr 10:25:29 10:28:57 26° 67° (ENE) 10:32:29 145.980
ANTELSAT 25 Apr 10:30:03 10:34:32 61° 73° (ENE) 10:39:08 437.575/2403.000
UKube-1 25 Apr 10:31:32 10:34:27 18° 91° (E) 10:37:30 .
DOVE 4 25 Apr 10:34:41 10:39:33 47° 288° (WNW) 10:44:34 437.250
COMPASS 1 25 Apr 10:38:06 10:42:11 47° 288° (WNW) 10:46:12 437.405
QB50P1 25 Apr 10:42:12 10:46:07 39° 71° (ENE) 10:50:05 145.935-145.965
HUMSAT D 25 Apr 10:48:20 10:51:51 24° 93° (E) 10:55:25 437.325/437.525
ZACube-1 25 Apr 10:49:38 10:54:10 52° 99° (E) 10:58:39 437.345
Oscar 11 25 Apr 10:50:00 10:54:23 89° 284° (WNW) 10:58:43 145.826/435.025
VELOX 1 25 Apr 10:53:48 10:56:28 16° 90° (E) 10:59:17 145.980
HO-68 25 Apr 10:54:54 11:01:46 48° 295° (WNW) 11:08:32 435.675
DELFI C3 25 Apr 10:58:35 11:02:40 89° 99° (E) 11:06:41 145.870
SEEDS 25 Apr 11:03:38 11:07:01 23° 293° (WNW) 11:10:16 437.485
AIST 2 25 Apr 11:06:43 11:09:01 14° 34° (NE) 11:11:23 435.215
QB50P2 25 Apr 11:07:49 11:12:02 77° 76° (ENE) 11:16:18 145.880/145.840
AISAT 25 Apr 11:10:49 11:14:28 25° 94° (E) 11:18:10 437.250
CANX-2 25 Apr 11:12:10 11:14:44 15° 296° (WNW) 11:17:10 2200.000
SO-50 25 Apr 11:12:30 11:15:46 20° 112° (ESE) 11:19:16 436.795
YUBILEINY 25 Apr 11:18:27 11:27:13 75° 95° (E) 11:36:03 435.215
TIGRISAT 25 Apr 11:20:47 11:25:04 42° 262° (W) 11:29:29 435.000
CUTE 1.7 + AOD 2 25 Apr 11:21:39 11:23:53 14° 297° (WNW) 11:25:57 437.475
AAUSAT CUBESAT 2 25 Apr 11:21:46 11:24:55 20° 294° (WNW) 11:27:57 437.432
CINEMA 3 25 Apr 11:22:03 11:26:26 31° 292° (WNW) 11:30:49 145.822/145.860
DX 1 25 Apr 11:22:57 11:27:20 67° 103° (ESE) 11:31:40 434.975-435.025
CUBEBUG 2 25 Apr 11:23:18 11:27:56 50° 288° (WNW) 11:32:32 437.445
UNISAT 6 25 Apr 11:25:03 11:29:17 37° 264° (W) 11:33:35 437.425
NANOSAT C BR1 25 Apr 11:26:17 11:30:28 69° 258° (WSW) 11:34:42 145.865
POPSAT HIP 1 25 Apr 11:29:20 11:33:30 63° 258° (WSW) 11:37:44 437.405
GOMX 1 25 Apr 11:36:57 11:38:34 11° 300° (WNW) 11:39:56 467.674
AIST 1 25 Apr 11:38:11 11:42:06 35° 75° (ENE) 11:46:03
BEESAT 3 25 Apr 11:44:25 11:48:33 72° 55° (NE) 11:52:35 437.485
BEESAT 2 25 Apr 11:45:23 11:49:31 62° 52° (NE) 11:53:33 435.950
50 SAT 25 Apr 11:46:26 11:50:28 63° 101° (E) 11:54:27 437.505
ESTCUBE 1 25 Apr 11:48:19 11:52:21 33° 96° (E) 11:56:26 437.505/2401.250
UWE-3 25 Apr 11:50:28 11:54:41 33° 291° (WNW) 11:58:51 435.000/436.395/437.385
ISS 25 Apr 11:55:15 11:57:44 21° 136° (SE) 12:00:18 145.825
BUGSAT 1 25 Apr 11:56:06 11:59:57 44° 261° (W) 12:03:50 437.445
POLYITAN 1 25 Apr 11:59:34 12:03:18 29° 265° (W) 12:07:02 437.675
FUNcube-1 25 Apr 12:00:57 12:05:03 32° 291° (WNW) 12:09:05 145.935
DUCHIFAT 1 25 Apr 12:00:59 12:04:42 29° 265° (W) 12:08:24 145.980
UKube-1 25 Apr 12:06:43 12:10:52 45° 289° (WNW) 12:14:59 .
ANTELSAT 25 Apr 12:09:11 12:11:50 15° 272° (W) 12:14:19 437.575/2403.000
Cosmos 2491 25 Apr 12:09:25 12:16:26 26° 278° (W) 12:23:07 435.465 / 435.565
Cosmos 2504 25 Apr 12:13:34 12:18:42 18° 78° (ENE) 12:24:18 435.465 / 435.565
QB50P1 25 Apr 12:19:05 12:22:11 19° 268° (W) 12:25:13 145.935-145.965
SPROUT 25 Apr 12:21:41 12:24:41 19° 91° (E) 12:27:48 437.525
HUMSAT D 25 Apr 12:23:44 12:27:41 33° 290° (WNW) 12:31:33 437.325/437.525
ZACube-1 25 Apr 12:26:54 12:30:10 19° 296° (WNW) 12:33:19 437.345
VELOX 1 25 Apr 12:29:04 12:33:24 53° 288° (WNW) 12:37:44 145.980
Oscar 11 25 Apr 12:29:08 12:29:55 10° 300° (WNW) 12:30:29 145.826/435.025
CUBEBUG 1 25 Apr 12:35:08 12:39:32 90° 286° (WNW) 12:43:55 437.445
AIST 2 25 Apr 12:44:04 12:48:20 80° 53° (NE) 12:52:32 435.215
HO-68 25 Apr 12:46:10 12:47:57 11° 315° (NW) 12:49:20 435.675
AISAT 25 Apr 12:47:05 12:51:08 34° 291° (WNW) 12:55:09 437.250
SO-50 25 Apr 12:51:18 12:55:56 57° 310° (NW) 13:00:44 436.795
Oscar 19 25 Apr 12:57:47 13:02:33 40° 69° (ENE) 13:07:24 437.125/150
DX 1 25 Apr 13:00:46 13:03:06 14° 298° (WNW) 13:05:15 434.975-435.025
AIST 1 25 Apr 13:16:23 13:19:34 20° 272° (W) 13:22:38
YUBILEINY 25 Apr 13:17:50 13:25:06 27° 298° (WNW) 13:32:07 435.215
50 SAT 25 Apr 13:22:55 13:24:49 13° 297° (WNW) 13:26:33 437.505
BEESAT 3 25 Apr 13:24:25 13:26:02 12° 250° (WSW) 13:27:27 437.485
BEESAT 2 25 Apr 13:24:54 13:27:10 14° 249° (WSW) 13:29:16 435.950
ESTCUBE 1 25 Apr 13:25:22 13:29:09 26° 293° (WNW) 13:32:50 437.505/2401.250
TISAT 1 25 Apr 13:27:03 13:31:18 72° 102° (ESE) 13:35:33 437.305
ITUPSAT 1 25 Apr 13:27:21 13:29:02 12° 87° (E) 13:30:58 437.325
ISS 25 Apr 13:30:40 13:33:53 58° 333° (NNW) 13:37:07 145.825
ITAMSAT 1 25 Apr 13:32:30 13:36:49 28° 65° (ENE) 13:41:13 435.822/435.867
RS-15 25 Apr 13:41:03 13:49:54 32° 106° (ESE) 13:59:12 29.354- 29.394
JAS-2 25 Apr 13:51:21 13:53:57 12° 50° (NE) 13:56:56 435.910
BEESAT 25 Apr 13:56:39 14:00:29 24° 93° (E) 14:04:24 436.000
SPROUT 25 Apr 13:56:54 14:01:02 43° 289° (WNW) 14:05:07 437.525
SWISSCUBE 25 Apr 13:58:59 14:03:02 28° 94° (E) 14:07:08 437.505
Gurwin Techsat 1B 25 Apr 14:00:20 14:05:16 42° 69° (ENE) 14:10:17 435.225
Cosmos 2504 25 Apr 14:02:08 14:11:01 82° 96° (E) 14:19:49 435.465 / 435.565
AO-7 25 Apr 14:10:47 14:16:41 23° 51° (NE) 14:22:49 29.400- 29.500
CUBEBUG 1 25 Apr 14:14:20 14:15:17 10° 300° (WNW) 14:16:00 437.445
AIST 2 25 Apr 14:24:59 14:26:22 11° 251° (WSW) 14:27:31 435.215
SO-50 25 Apr 14:35:02 14:37:35 14° 332° (NNW) 14:40:03 436.795
Oscar 19 25 Apr 14:37:40 14:42:03 27° 266° (W) 14:46:25 437.125/150
STARS 25 Apr 14:52:55 14:53:07 10° 86° (E) 14:53:36 437.465
ITUPSAT 1 25 Apr 15:02:49 15:07:37 79° 285° (WNW) 15:12:22 437.325
TISAT 1 25 Apr 15:04:42 15:06:35 12° 298° (WNW) 15:08:18 437.305
ISS 25 Apr 15:08:01 15:10:43 23° 353° (N) 15:13:24 145.825
ITAMSAT 1 25 Apr 15:11:18 15:16:11 40° 262° (W) 15:21:03 435.822/435.867
HORYU 2 25 Apr 15:15:31 15:19:45 43° 70° (ENE) 15:24:02 437.375
PCSat 25 Apr 15:29:39 15:31:40 12° 29° (NNE) 15:33:52 145.827
JAS-2 25 Apr 15:30:05 15:37:36 52° 69° (ENE) 15:44:53 435.910
KKS-1 25 Apr 15:31:02 15:35:18 41° 98° (E) 15:39:33 437.445
BEESAT 25 Apr 15:34:03 15:38:29 39° 291° (WNW) 15:42:52 436.000
SWISSCUBE 25 Apr 15:36:39 15:40:58 34° 292° (WNW) 15:45:13 437.505
Gurwin Techsat 1B 25 Apr 15:40:55 15:45:26 27° 267° (W) 15:49:53 435.225
GONETS M04 25 Apr 15:43:25 15:50:08 27° 82° (E) 15:57:11
RS-15 25 Apr 15:50:27 16:01:21 76° 308° (NW) 16:12:35 29.354- 29.394
Cosmos 2504 25 Apr 15:58:27 16:05:35 25° 298° (WNW) 16:12:21 435.465 / 435.565
AO-7 25 Apr 16:00:13 16:08:30 86° 70° (ENE) 16:16:51 29.400- 29.500
VERMONT LUNAR 25 Apr 16:21:49 16:22:47 11° 151° (SSE) 16:23:51 437.305
STARS 25 Apr 16:25:47 16:30:16 83° 285° (WNW) 16:34:43 437.465
Cubesat XI-IV 25 Apr 16:35:08 16:35:41 10° 55° (NE) 16:36:31 437.490
ITUPSAT 1 25 Apr 16:43:40 16:44:47 11° 302° (WNW) 16:45:38 437.325
ISS 25 Apr 16:44:56 16:47:45 26° 13° (NNE) 16:50:36 145.825
HORYU 2 25 Apr 16:53:15 16:56:38 20° 268° (W) 16:59:55 437.375
DANDE 25 Apr 16:58:41 17:00:46 15° 83° (E) 17:03:19 436.750
KKS-1 25 Apr 17:08:14 17:11:42 22° 295° (WNW) 17:15:05 437.445
PCSat 25 Apr 17:11:18 17:16:33 48° 52° (NE) 17:21:47 145.827
JAS-2 25 Apr 17:15:33 17:22:48 38° 266° (W) 17:29:45 435.910
MOZHAYETS 4 25 Apr 17:33:44 17:38:17 58° 100° (E) 17:42:48
GONETS M04 25 Apr 17:37:31 17:46:17 71° 282° (WNW) 17:55:08
VERMONT LUNAR 25 Apr 17:56:38 17:59:41 31° 165° (SSE) 18:02:44 437.305
